Flag for Honduras Weather past 2 weeks in Tegucigalpa, Honduras

Now
77 °F

Clear.


Feels Like: 79 °F
Forecast: 67 / 89 °F
Wind: 5 mph from Southeast

Location: Tegucigalpa Airport

Current Time: Apr 21, 2015 at 9:55:39 PM

Latest Report: Apr 21, 2015 at 9:00 PM


Visibility: N/A

Pressure: 30.04 "Hg

Humidity: 54%

Dew point: 59 °F

Location of TegucigalpaLocation

Historic Weather in Tegucigalpa — Graph

°F

Tegucigalpa temperature yesterday

Maximum temperature yesterday: 90 °F (at 1:00 PM)
Minimum temperature yesterday: 68 °F (at 5:00 AM)
Average temperature yesterday: 78 °F

Past Weeks' High & Low Weather Summary

 TemperatureHumidityPressure
High93 °F (Apr 21, 2:00 PM)100% (Apr 10, 5:00 AM)30.15 "Hg (Apr 10, 5:00 AM)
Low61 °F (Apr 10, 5:00 AM)26% (Apr 18, 1:00 PM)29.92 "Hg (Apr 18, 4:00 PM)
Average76 °F59%30.06 "Hg
* Reported Apr 6 8:00 PM — Apr 21 8:00 PM, Tegucigalpa, Weather by CustomWeather, © 2015

Note: Actual official high and low records may vary slightly from our data, if they occured in-between our weather recording intervals... More about our weather records

Advertising

Tegucigalpa weather history for previous 24 hours

 ConditionsComfort  
Time TempWeatherWind HumidityBarometerVisibility
8:00 PM
Tue, Apr 21
79 °FPassing clouds.5 mph58%30.01 "HgN/A
7:00 PM81 °FPassing clouds.3 mph45%29.98 "HgN/A
6:00 PM84 °FPassing clouds.3 mph37%29.95 "HgN/A
5:00 PM86 °FPassing clouds.6 mph38%29.92 "Hg5 mi
4:00 PM90 °FPassing clouds.5 mph33%29.92 "Hg4 mi
3:00 PM91 °FPassing clouds.7 mph30%29.95 "Hg3 mi
2:00 PM93 °FPassing clouds.9 mph47%29.95 "Hg4 mi
1:00 PM90 °FScattered clouds.5 mph36%30.01 "Hg4 mi
12:00 PM88 °FScattered clouds.5 mph40%30.04 "Hg4 mi
11:00 AM86 °FScattered clouds.7 mph49%30.07 "Hg4 mi
10:00 AM82 °FScattered clouds.5 mph51%30.09 "Hg4 mi
9:00 AM79 °FScattered clouds.5 mph58%30.09 "Hg4 mi
8:00 AM75 °FPartly sunny.No wind69%30.09 "Hg4 mi
7:00 AM70 °FPassing clouds.No wind88%30.07 "Hg4 mi
6:00 AM66 °FPartly sunny.No wind94%30.04 "Hg4 mi
5:00 AM66 °FPassing clouds.No wind94%30.04 "Hg4 mi
4:00 AM66 °FPassing clouds.No wind94%30.04 "Hg4 mi
3:00 AM66 °FPassing clouds.No wind94%30.04 "Hg4 mi
2:00 AM66 °FPassing clouds.3 mph94%30.04 "Hg4 mi
1:00 AM68 °FMild.3 mph94%30.04 "HgN/A
12:00 AM70 °FPassing clouds.5 mph88%30.04 "Hg4 mi
11:00 PM
Mon, Apr 20
72 °FPassing clouds.5 mph83%30.04 "Hg5 mi
10:00 PM73 °FClear.5 mph78%30.04 "Hg5 mi
9:00 PM75 °FPassing clouds.6 mph74%30.04 "Hg5 mi
Weather by CustomWeather, © 2015

See weather overviewHow to use our weather pages